This is the latest recevied weather packets stored in our database for station/object HJ3GNC-15. If no packets are shown the sender has not sent any weather packets the latest 10 day(s).
| Time | Temp. | Humidity | Pressure | Rain* | Wind** | Luminosity | Snow |
|---|---|---|---|---|---|---|---|
| 1777525406 | 14.44° C | 93% | 1014 hPa | 0 mm | - | - | - |
| 1777524461 | 14.44° C | 93% | 1014 hPa | 0 mm | - | - | - |
| 1777523523 | 14.44° C | 93% | 1014 hPa | 0 mm | - | - | - |
| 1777522576 | 14.44° C | 93% | 1014 hPa | 0 mm | - | - | - |
| 1777521609 | 14.44° C | 93% | 1015 hPa | 0 mm | - | - | - |
| 1777519677 | 15° C | 94% | 1014 hPa | 0 mm | - | - | - |
| 1777518736 | 15° C | 93% | 1014 hPa | 0 mm | - | - | - |
| 1777517794 | 15° C | 93% | 1014 hPa | 0 mm | - | - | - |
| 1777516850 | 15° C | 93% | 1014 hPa | 0 mm | - | - | - |
| 1777515906 | 22.22° C | 94% | 1013 hPa | 0 mm | - | - | - |
| 1777514966 | 21.67° C | 94% | 1013 hPa | 0 mm | - | - | - |
| 1777514020 | 21.11° C | 94% | 1014 hPa | 0 mm | - | - | - |
| 1777513077 | 20.56° C | 94% | 1014 hPa | 0 mm | - | - | - |
| 1777512136 | 15° C | 94% | 1012 hPa | 0 mm | - | - | - |
| 1777511194 | 15° C | 92% | 1012 hPa | 0 mm | - | - | - |
| 1777510248 | 15° C | 93% | 1013 hPa | 0 mm | - | - | - |
| 1777509301 | 15° C | 93% | 1012 hPa | 0 mm | - | - | - |
| 1777508359 | 15.56° C | 91% | 1011 hPa | 0 mm | - | - | - |
| 1777507412 | 15.56° C | 91% | 1011 hPa | 0 mm | - | - | - |
| 1777506459 | 15.56° C | 91% | 1011 hPa | 0 mm | - | - | - |
| 1777505509 | 15.56° C | 91% | 1011 hPa | 0 mm | - | - | - |
| 1777504558 | 16.67° C | 87% | 1010 hPa | 0 mm | - | - | - |
| 1777503616 | 16.11° C | 89% | 1010 hPa | 0 mm | - | - | - |
| 1777502673 | 16.11° C | 89% | 1010 hPa | 0 mm | - | - | - |
| 1777501730 | 17.78° C | 84% | 1009 hPa | 0 mm | - | - | - |
* Rain latest hour (hover to see other rain measurements)
** Current wind speed in m/s (hover to see current wind gust speed)